Change the Weather History Date:

Sunday, March 3, 2013

  Actual Average Record
Temperature  
Mean Temperature 36 °F -  
Max Temperature 48 °F 52 °F - ()
Min Temperature 25 °F 34 °F - ()
Degree Days  
Heating Degree Days 28    
Moisture  
Dew Point 27 °F    
Average Humidity 66    
Maximum Humidity 93    
Minimum Humidity 38    
Precipitation  
Precipitation 0.00 in 0.05 in - ()
Sea Level Pressure  
Sea Level Pressure 30.06 in    
Wind  
Wind Speed 9 mph ()    
Max Wind Speed 20 mph    
Max Gust Speed -    
Visibility 5.3 miles    
Events      
T = Trace of Precipitation, MM = Missing Value Source: Averaged Metar Reports

Daily Weather History Graph

Daily Weather History Graph

Search for Another Location

Airport or City:

Trip Planner

Search our weather history database for the weather conditions in past years. The results will help you decide how hot, cold, wet, or windy it might be!

Date:

Astronomy

Mar. 03, 2013 Rise Set
Actual Time 6:10 AM CET 5:21 PM CET
Civil Twilight 5:39 AM CET 5:52 PM CET
Nautical Twilight 5:03 AM CET 6:27 PM CET
Astronomical Twilight 4:28 AM CET 7:03 PM CET
Moon No Moon Rise 8:43 AM CET (3/3)
Length of Visible Light 12h 12m
Length of Day
11h 11m
Waning Gibbous, 66% of the Moon is Illuminated
Mar 3
Waning Gibbous
Mar 4
Last Quarter
Mar 11
New
Mar 19
First Quarter
Mar 27
Full

Hourly Weather History & Observations

Time (CET) Temp. Windchill Dew Point Humidity Pressure Visibility Wind Dir Wind Speed Gust Speed Precip Events Conditions
1:00 AM 28 °F - 23 °F 75% 30.16 in - SE 2.2 mph - -  
5:15 AM 26.6 °F 20.0 °F 24.8 °F 93% 30.09 in - South 5.8 mph - N/A   Clear
5:45 AM 26.6 °F 19.1 °F 24.8 °F 93% 30.09 in 4.3 mi South 6.9 mph - N/A   Partly Cloudy
6:00 AM - - - N/A% - 3.1 mi South 6.9 mph - N/A   Scattered Clouds
6:15 AM 26.6 °F 19.1 °F 24.8 °F 93% 30.09 in 3.7 mi South 6.9 mph - N/A   Partly Cloudy
6:33 AM 26.6 °F 20.0 °F 24.8 °F 93% 30.12 in - South 5.8 mph - N/A   Partly Cloudy
6:45 AM 26.6 °F 20.0 °F 24.8 °F 93% 30.09 in - South 5.8 mph - N/A   Partly Cloudy
7:00 AM 26 °F - 25 °F 93% 30.12 in 2 mi South 4.5 mph - -   Mist
7:15 AM 28.4 °F 20.4 °F 26.6 °F 93% 30.09 in 2.5 mi South 8.1 mph - N/A   Partly Cloudy
7:45 AM 30.2 °F 21.3 °F 28.4 °F 93% 30.09 in 2.5 mi SSW 10.4 mph - N/A   Partly Cloudy
8:15 AM 32.0 °F 23.6 °F 30.2 °F 93% 30.09 in 2.8 mi SSW 10.4 mph - N/A   Scattered Clouds
8:36 AM 35.6 °F 28.0 °F 30.2 °F 81% 30.12 in 3.7 mi SSW 10.4 mph - N/A   Scattered Clouds
8:45 AM 35.6 °F 27.5 °F 30.2 °F 81% 30.09 in 4.3 mi SSW 11.5 mph - N/A   Scattered Clouds
9:00 AM - - - N/A% - - SSW 15.0 mph - N/A   Dust Whirls
9:15 AM 37.4 °F 29.3 °F 30.2 °F 75% 30.09 in - SSW 12.7 mph - N/A   Clear
10:15 AM 42.8 °F 35.4 °F 30.2 °F 61% 30.06 in 6.2 mi SW 15.0 mph - N/A   Scattered Clouds
10:45 AM 44.6 °F 37.2 °F 30.2 °F 57% 30.06 in 6.2 mi WSW 17.3 mph - N/A   Scattered Clouds
11:15 AM 44.6 °F 36.9 °F 28.4 °F 53% 30.06 in 6.2 mi WSW 18.4 mph - N/A   Scattered Clouds
11:45 AM 44.6 °F 36.9 °F 28.4 °F 53% 30.06 in 6.2 mi WSW 18.4 mph - N/A   Mostly Cloudy
12:00 PM - - - N/A% - 6.2 mi WSW 17.3 mph - N/A   Scattered Clouds
12:15 PM 46.4 °F 39.2 °F 28.4 °F 50% 30.04 in 6.2 mi WSW 18.4 mph - N/A   Mostly Cloudy
12:45 PM 46.4 °F 39.2 °F 28.4 °F 50% 30.04 in 6.2 mi WSW 18.4 mph - N/A   Mostly Cloudy
1:00 PM 46 °F - 28 °F 38% 30.04 in 16 mi WSW 17.9 mph - -   Partly Cloudy
1:15 PM 46.4 °F 39.5 °F 26.6 °F 46% 30.01 in 6.2 mi WSW 17.3 mph - N/A   Mostly Cloudy
1:45 PM 48.2 °F - 24.8 °F 40% 30.01 in 6.2 mi WSW 18.4 mph - N/A   Mostly Cloudy
2:15 PM 48.2 °F - 24.8 °F 40% 29.98 in - WSW 19.6 mph - N/A   Clear
2:45 PM 48.2 °F - 26.6 °F 43% 30.01 in - WSW 17.3 mph - N/A   Clear
3:15 PM 48.2 °F - 26.6 °F 43% 29.98 in - WSW 17.3 mph - N/A   Clear
3:45 PM 48.2 °F - 24.8 °F 40% 29.98 in - WSW 15.0 mph - N/A   Clear
4:15 PM 48.2 °F - 24.8 °F 40% 29.98 in - WSW 15.0 mph - N/A   Clear
4:45 PM 46.4 °F 41.1 °F 26.6 °F 46% 29.98 in - WSW 11.5 mph - N/A   Clear
7:00 PM 35 °F - 27 °F 63% 30.01 in - SW 6.7 mph - -  
7:00 PM - - - N/A% - - North - - N/A   Unknown